COSMOS 414

Satellite information

Favourite Embed

Satellite Type and Status

PAYLOADIN ORBIT

Key statistics

Satellite COSMOS 414 at a glance.

Uptime

19726

Days in orbit

Revolutions

≈ 12.5

Per day

Orbit

LEO

Low Earth Orbit

Inclination

74.0

Latest

Satellite identification and parameters

Extended collection of information and parameters for COSMOS 414.

Object identification

Identified? True

Debris? False

Object name: COSMOS 414

International designator: 1971-041D

Object number (NORAD): 5213

Object ID (CCSDS): 5213

Country: COMMONWEALTH OF INDEPENDENT STATES (CIS)

Current information (Y/N): Y

RCS size: MEDIUM

Orbital parameters

Period: 115.095 minutes

Inclination: 74.0142 deg

SMA: 7837.865 km

Apoapsis: 1493.263 km

Periapsis: 1426.196 km

RAAN: 85.615 deg

Eccentricy: 0.0042784

Argument of periapsis: 329.8418 deg

Mean anomaly: 186.7644 deg

Mean motion: 12.51140638 rev/day

Mean motion (dot): 0.0 rev/day2

B* drag term: 0.00010637 1/REarth

Two-line elements (TLE)

Creation date: May 8, 2025, 3:01 a.m.

Reference frame: TEME

Reference center: EARTH

Epoch: May 7, 2025, 8:41 a.m. UTC

TLE line 0: 0 COSMOS 414

TLE line 1: 1 05213U 71041D 25127.36220689 .00000000 00000-0 10637-3 0 9997

TLE line 2: 2 05213 74.0142 85.6150 0042784 329.8418 186.7644 12.51140638466391

Live tracking on map

Real-time ground track for satellite COSMOS 414.

In-orbit conjunctions

There are no conjunctions computed for COSMOS 414, at the moment. Check back to stay up to date, as we update our databases every day.

Go to all conjunctions

Associated space launch

Military communications satellites

COSMOS 414 was lifted into orbit during the mission ‘Kosmos-3M | Strela-1M 9-16’, on board a Kosmos-3M space rocket.

The launch took place on May 7, 1971, 2:20 p.m. from 132/1 (132L).

For more information about the launch, click the button.

Launch to space Kosmos-3M | Strela-1M 9-16
Kosmos-3M | Strela-1M 9-16

Agency: N/A

Status: Launch Successful

Launch date: May 7, 1971, 2:20 p.m. UTC

Rocket: Kosmos-3M

Launch pad: 132/1 (132L)

Location: Plesetsk Cosmodrome, Russian Federation

...

Latest news about this satellite

There are no fresh news available about this satellite. Check back as we update our databases every day.


Newsletter sign-up

Weekly statistics, charts and insights to help you stay on top of the space industry.